contact:dominique.lefevre@mio.osupytheas.fr, maurice.libes@osupytheas.fr
Project:EMSO Ligure-ouest http://www.emso-fr.org/EMSO-France
Sensor Aquadopp, line 04 Serial AQD8517 
DOI : "https://doi.org/10.17882/74513; https://doi.org/10.17882/83244" 
Title:EMSO Ligure Ouest : Data ligne ALBATROSS capteur AQUADOPP - deploiement 2021
Id,Date,Profondeur,Latitude,Longitude,X_East,Y_North,Z_Up,Amplitude_X,Amplitude_Y,Amplitude_Z,Batterie,SoundSpeed,Heading,Pitch,Roll,Pressure,Temperature,Speed,Direction
, , m, degrees North, degrees East, m.s-1, m.s-1,m.s-1, 1, 1, 1, Volt, m.s-1, degree, degree, degree, dbar, degree_C, m.s-1, degree
04,2022-03-12T21:30:00,1000.0,42.79,6.0312,0.007,-0.007,0.009,62.0,62.0,60.0,12.3,1504.7,253.9,-0.5,-0.3,967.376,13.29,0.009,135.0
04,2022-03-12T22:00:00,1000.0,42.79,6.0312,-0.002,-0.003,0.0,62.0,62.0,54.0,12.3,1504.7,250.8,-0.5,-0.3,967.378,13.28,0.003,213.7
04,2022-03-12T22:30:00,1000.0,42.79,6.0312,0.004,0.007,-0.005,61.0,63.0,58.0,12.3,1504.6,241.3,-0.4,-0.3,967.394,13.27,0.008,29.7
04,2022-03-12T23:00:00,1000.0,42.79,6.0312,0.011,-0.002,-0.016,60.0,63.0,59.0,12.3,1504.7,231.3,-0.5,-0.3,967.361,13.29,0.011,100.3
04,2022-03-12T23:30:00,1000.0,42.79,6.0312,0.018,-0.001,-0.014,60.0,64.0,58.0,12.3,1504.7,221.6,-0.4,-0.3,967.385,13.3,0.018,93.2
04,2022-03-13T00:00:00,1000.0,42.79,6.0312,0.016,0.013,-0.012,60.0,67.0,59.0,12.3,1504.8,215.2,-0.4,-0.3,967.374,13.31,0.02,50.9
04,2022-03-13T00:30:00,1000.0,42.79,6.0312,0.01,0.0,0.011,62.0,64.0,61.0,12.3,1504.8,217.0,-0.4,-0.3,967.398,13.32,0.01,90.0
04,2022-03-13T01:00:00,1000.0,42.79,6.0312,0.017,-0.003,-0.005,63.0,62.0,57.0,12.3,1504.8,212.1,-0.4,-0.3,967.415,13.31,0.017,100.0
04,2022-03-13T01:30:00,1000.0,42.79,6.0312,0.031,0.0,0.01,61.0,63.0,59.0,12.3,1504.8,208.5,-0.4,-0.3,967.412,13.31,0.03,90.0
04,2022-03-13T02:00:00,1000.0,42.79,6.0312,0.026,0.004,-0.008,61.0,63.0,62.0,12.3,1504.8,208.7,-0.4,-0.3,967.438,13.31,0.026,81.3
04,2022-03-13T02:30:00,1000.0,42.79,6.0312,0.018,-0.006,-0.011,62.0,62.0,61.0,12.3,1504.8,215.5,-0.4,-0.3,967.466,13.31,0.018,108.4
04,2022-03-13T03:00:00,1000.0,42.79,6.0312,0.03,-0.02,-0.008,61.0,64.0,59.0,12.3,1504.8,214.1,-0.5,-0.3,967.465,13.31,0.036,123.7
04,2022-03-13T03:30:00,1000.0,42.79,6.0312,0.025,-0.016,0.001,60.0,63.0,60.0,12.3,1504.8,214.9,-0.5,-0.3,967.477,13.31,0.029,122.6
04,2022-03-13T04:00:00,1000.0,42.79,6.0312,0.02,-0.035,0.011,62.0,61.0,60.0,12.3,1504.7,219.6,-0.4,-0.3,967.439,13.3,0.04,150.3
04,2022-03-13T04:30:00,1000.0,42.79,6.0312,0.02,-0.033,0.014,63.0,64.0,60.0,12.3,1504.7,220.0,-0.5,-0.3,967.47,13.3,0.038,148.8
04,2022-03-13T05:00:00,1000.0,42.79,6.0312,0.019,-0.031,0.021,63.0,64.0,62.0,12.3,1504.7,222.8,-0.5,-0.3,967.492,13.3,0.036,148.5
04,2022-03-13T05:30:00,1000.0,42.79,6.0312,0.007,-0.029,0.008,61.0,66.0,61.0,12.3,1504.7,229.4,-0.5,-0.3,967.477,13.3,0.029,166.4
04,2022-03-13T06:00:00,1000.0,42.79,6.0312,0.013,-0.035,0.002,62.0,66.0,62.0,12.3,1504.7,231.3,-0.5,-0.3,967.491,13.29,0.037,159.6
04,2022-03-13T06:30:00,1000.0,42.79,6.0312,0.02,-0.03,0.009,62.0,65.0,60.0,12.3,1504.7,230.7,-0.5,-0.3,967.501,13.28,0.036,146.3
04,2022-03-13T07:00:00,1000.0,42.79,6.0312,0.007,-0.029,0.0,62.0,65.0,61.0,12.3,1504.7,231.5,-0.4,-0.3,967.494,13.28,0.029,166.4
04,2022-03-13T07:30:00,1000.0,42.79,6.0312,0.0,-0.024,-0.001,61.0,64.0,63.0,12.3,1504.7,228.4,-0.5,-0.3,967.493,13.28,0.024,180.0
04,2022-03-13T08:00:00,1000.0,42.79,6.0312,0.006,-0.033,0.006,62.0,64.0,61.0,12.3,1504.7,226.1,-0.4,-0.3,967.498,13.28,0.033,169.7
04,2022-03-13T08:30:00,1000.0,42.79,6.0312,0.008,-0.027,-0.015,62.0,65.0,61.0,12.3,1504.7,226.2,-0.5,-0.3,967.442,13.28,0.028,163.5
04,2022-03-13T09:00:00,1000.0,42.79,6.0312,0.005,-0.023,0.011,61.0,64.0,59.0,12.3,1504.7,229.0,-0.5,-0.3,967.444,13.29,0.023,167.7
04,2022-03-13T09:30:00,1000.0,42.79,6.0312,0.005,-0.034,-0.008,64.0,63.0,61.0,12.3,1504.7,227.9,-0.5,-0.3,967.44,13.3,0.034,171.6
04,2022-03-13T10:00:00,1000.0,42.79,6.0312,0.009,-0.03,0.0,61.0,69.0,60.0,12.3,1504.7,229.3,-0.5,-0.3,967.392,13.3,0.031,163.3
04,2022-03-13T10:30:00,1000.0,42.79,6.0312,0.004,-0.036,-0.002,61.0,65.0,61.0,12.3,1504.7,229.2,-0.5,-0.4,967.397,13.3,0.036,173.7
04,2022-03-13T11:00:00,1000.0,42.79,6.0312,0.009,-0.03,-0.012,60.0,63.0,60.0,12.3,1504.8,233.6,-0.5,-0.3,967.408,13.31,0.031,163.3
04,2022-03-13T11:30:00,1000.0,42.79,6.0312,-0.003,-0.024,-0.007,62.0,64.0,60.0,12.3,1504.7,232.2,-0.6,-0.3,967.412,13.3,0.024,187.1
04,2022-03-13T12:00:00,1000.0,42.79,6.0312,0.004,-0.02,-0.012,61.0,62.0,60.0,12.3,1504.8,231.8,-0.6,-0.3,967.432,13.31,0.02,168.7
04,2022-03-13T12:30:00,1000.0,42.79,6.0312,0.005,-0.031,0.005,60.0,66.0,60.0,12.3,1504.8,231.5,-0.6,-0.3,967.388,13.31,0.031,170.8
04,2022-03-13T13:00:00,1000.0,42.79,6.0312,-0.005,-0.022,-0.002,62.0,62.0,61.0,12.3,1504.8,236.6,-0.6,-0.3,967.432,13.32,0.022,192.8
04,2022-03-13T13:30:00,1000.0,42.79,6.0312,-0.009,-0.032,-0.011,62.0,64.0,60.0,12.3,1504.8,237.9,-0.6,-0.4,967.406,13.32,0.033,195.7
04,2022-03-13T14:00:00,1000.0,42.79,6.0312,-0.006,-0.016,-0.017,63.0,64.0,60.0,12.3,1504.8,241.6,-0.5,-0.3,967.426,13.32,0.017,200.6
04,2022-03-13T14:30:00,1000.0,42.79,6.0312,-0.007,-0.018,0.011,59.0,63.0,61.0,12.3,1504.8,244.2,-0.5,-0.3,967.392,13.32,0.019,201.2
04,2022-03-13T15:00:00,1000.0,42.79,6.0312,-0.003,-0.024,0.0,60.0,65.0,61.0,12.3,1504.8,239.9,-0.6,-0.3,967.401,13.31,0.024,187.1
04,2022-03-13T15:30:00,1000.0,42.79,6.0312,-0.005,-0.033,0.0,61.0,63.0,59.0,12.3,1504.8,245.0,-0.5,-0.3,967.41,13.31,0.033,188.6
04,2022-03-13T16:00:00,1000.0,42.79,6.0312,-0.005,-0.023,-0.015,61.0,63.0,62.0,12.3,1504.8,246.3,-0.6,-0.3,967.412,13.31,0.023,192.3
04,2022-03-13T16:30:00,1000.0,42.79,6.0312,0.007,-0.018,-0.025,60.0,64.0,62.0,12.3,1504.8,251.0,-0.6,-0.3,967.431,13.31,0.019,158.8
04,2022-03-13T17:00:00,1000.0,42.79,6.0312,0.002,-0.015,0.004,63.0,64.0,60.0,12.3,1504.8,254.7,-0.6,-0.3,967.441,13.32,0.015,172.4
04,2022-03-13T17:30:00,1000.0,42.79,6.0312,0.017,-0.011,0.008,60.0,63.0,61.0,12.3,1504.8,247.6,-0.5,-0.3,967.408,13.33,0.02,122.9
04,2022-03-13T18:00:00,1000.0,42.79,6.0312,0.013,-0.009,-0.002,62.0,65.0,61.0,12.3,1504.8,246.9,-0.5,-0.3,967.384,13.32,0.015,124.7
04,2022-03-13T18:30:00,1000.0,42.79,6.0312,0.011,-0.006,0.02,61.0,63.0,63.0,12.3,1504.8,236.8,-0.5,-0.3,967.367,13.31,0.012,118.6
04,2022-03-13T19:00:00,1000.0,42.79,6.0312,0.007,0.0,0.019,62.0,65.0,59.0,12.3,1504.7,228.8,-0.4,-0.3,967.411,13.29,0.007,90.0
04,2022-03-13T19:30:00,1000.0,42.79,6.0312,0.017,-0.016,0.001,61.0,66.0,62.0,12.3,1504.7,223.5,-0.4,-0.3,967.403,13.28,0.023,133.3
04,2022-03-13T20:00:00,1000.0,42.79,6.0312,0.022,-0.01,-0.011,62.0,60.0,60.0,12.3,1504.7,216.7,-0.4,-0.3,967.392,13.28,0.024,114.4
04,2022-03-13T20:30:00,1000.0,42.79,6.0312,0.016,-0.03,-0.008,61.0,61.0,60.0,12.3,1504.7,204.4,-0.4,-0.3,967.382,13.29,0.034,151.9
04,2022-03-13T21:00:00,1000.0,42.79,6.0312,0.018,-0.014,0.015,63.0,64.0,60.0,12.3,1504.7,211.7,-0.4,-0.3,967.353,13.3,0.022,127.9
